Location: Unspecified
(0.0000°N, 0.0000°E)
Time: 11:18:45
(UTC+00:00)

Vanguard 1 - Pass Details

Date: 21 November 2019
Orbit: 651 x 3832 km, 34.3° (Epoch: 13 December)

Event Time Altitude Azimuth Distance (km) Brightness Sun altitude
Rises 17:52:58 0° 307° (NW) 3,085 13.1 -1.7°
Reaches altitude 10° 17:54:57 10° 308° (NW) 2,294 12.5 -2.1°
Maximum altitude 18:00:08 87° 37° (NE) 1,004 10.1 -3.3°
Drops below altitude 10° 18:08:55 10° 126° (SE) 3,789 12.7 -5.4°
Sets 18:13:07 0° 126° (SE) 5,289 13.5 -6.4°
